Simultaneous Nadir Overpasses (SNOs) Predictions

Prediction of SNOs near US between AQUA and NPP Satellite Orbit:

Table of predicted SNOs near US for the next 10.0 days since TLE Epoch: 7/8/2016
Index Date (AQUA) Time (AQUA) AQUA Lat,Lon Date (NPP) Time (NPP) NPP Lat,Lon Distance(km) Time Diff (sec)
1 07/11/2016 07:18:31 49.92, -75.99 07/11/2016 07:21:02 50.34, -78.18 163.45 151
2 07/11/2016 08:57:24 49.92,-100.71 07/11/2016 09:02:30 50.45,-103.51 207.94 306
3 07/13/2016 18:16:40 49.97, -80.16 07/13/2016 18:11:18 49.69, -81.72 116.37 322
4 07/13/2016 19:55:33 49.97,-104.88 07/13/2016 19:52:46 49.58,-107.05 161.62 167
5 07/13/2016 21:30:44 36.73,-124.99 07/13/2016 21:30:26 36.26,-127.57 236.38 18
6 07/16/2016 09:22:40 25.67,-112.89 07/16/2016 09:15:54 25.76,-113.29 41.39 406
